Weather History for Springfield, MO

Change the Weather History Date:

Thursday, May 15, 2014

  Actual Average Record
Temperature  
Mean Temperature 51 °F 65 °F  
Max Temperature 62 °F 75 °F 87 °F (1957)
Min Temperature 40 °F 54 °F 35 °F (1907)
Degree Days  
Heating Degree Days 14 3  
Month to date heating degree days 80 64  
Since 1 July heating degree days 4988 4538  
Cooling Degree Days 0 3  
Month to date cooling degree days 74 27  
Year to date cooling degree days 88 52  
Moisture  
Dew Point 37 °F    
Average Humidity 62    
Maximum Humidity 92    
Minimum Humidity 31    
Precipitation  
Precipitation 0.00 in 0.16 in 1.72 in (1990)
Month to date precipitation 2.34 2.65  
Year to date precipitation 8.54 15.58  
Snow  
Snow 0.00 in - - ()
Month to date snowfall 0.0  
Since 1 July snowfall 32.2  
Snow Depth 0.00 in    
Sea Level Pressure  
Sea Level Pressure 30.12 in    
Wind  
Wind Speed 8 mph (West)    
Max Wind Speed 22 mph    
Max Gust Speed 28 mph    
Visibility 10 miles    
Events      
T = Trace of Precipitation, MM = Missing Value Source: NWS Daily Summary

Daily Weather History Graph

Daily Weather History Graph

Search for Another Location

Airport:

Trip Planner

Search our weather history database for the weather conditions in past years. The results will help you decide how hot, cold, wet, or windy it might be!

Date:

Astronomy

May. 15, 2014 Rise Set
Actual Time 6:04 AM CDT 8:15 PM CDT
Civil Twilight 5:35 AM CDT 8:44 PM CDT
Nautical Twilight 5:00 AM CDT 9:20 PM CDT
Astronomical Twilight 4:21 AM CDT 9:59 PM CDT
Moon 9:24 PM CDT (5/15) 6:52 AM CDT (5/15)
Length of Visible Light 15h 08m
Length of Day
14h 10m
Full, 99% of the Moon is Illuminated
May 15
Full
May 21
Last Quarter
May 28
New
Jun 5
First Quarter
Jun 12
Full

Hourly Weather History & Observations

Time (CDT) Temp. Windchill Dew Point Humidity Pressure Visibility Wind Dir Wind Speed Gust Speed Precip Events Conditions
12:52 AM 44.1 °F 42.5 °F 41.0 °F 89% 30.15 in 10.0 mi WSW 3.5 mph - N/A   Scattered Clouds
1:52 AM 44.1 °F 41.5 °F 39.9 °F 85% 30.13 in 10.0 mi West 4.6 mph - N/A   Overcast
2:52 AM 43.0 °F - 37.9 °F 82% 30.12 in 10.0 mi Calm Calm - N/A   Partly Cloudy
3:52 AM 41.0 °F 39.0 °F 36.0 °F 82% 30.11 in 10.0 mi SSW 3.5 mph - N/A   Clear
4:52 AM 39.9 °F - 36.0 °F 86% 30.12 in 10.0 mi Calm Calm - N/A   Mostly Cloudy
5:52 AM 39.9 °F 36.7 °F 37.0 °F 89% 30.11 in 10.0 mi SSW 4.6 mph - N/A   Partly Cloudy
6:52 AM 45.0 °F 41.2 °F 39.0 °F 80% 30.12 in 10.0 mi SW 6.9 mph - N/A   Overcast
7:52 AM 50.0 °F - 39.0 °F 66% 30.11 in 10.0 mi SW 9.2 mph - N/A   Overcast
8:52 AM 51.1 °F - 42.1 °F 71% 30.12 in 10.0 mi WSW 8.1 mph - N/A   Mostly Cloudy
9:52 AM 55.4 °F - 42.8 °F 63% 30.12 in 10.0 mi West 9.2 mph - N/A   Clear
10:52 AM 57.9 °F - 45.0 °F 62% 30.12 in 10.0 mi West 13.8 mph 18.4 mph N/A   Clear
11:52 AM 60.1 °F - 45.0 °F 57% 30.13 in 10.0 mi WNW 12.7 mph - N/A   Partly Cloudy
12:52 PM 59.0 °F - 41.0 °F 51% 30.12 in 10.0 mi WNW 12.7 mph 23.0 mph N/A   Scattered Clouds
2:52 PM 61.0 °F - 33.1 °F 35% 30.11 in 10.0 mi WNW 13.8 mph 20.7 mph N/A   Clear
3:52 PM 61.0 °F - 30.9 °F 32% 30.10 in 10.0 mi WNW 15.0 mph 23.0 mph N/A   Clear
4:52 PM 59.0 °F - 28.0 °F 31% 30.10 in 10.0 mi NW 13.8 mph 25.3 mph N/A   Clear
5:52 PM 59.0 °F - 30.0 °F 33% 30.11 in 10.0 mi NNW 18.4 mph 24.2 mph N/A   Partly Cloudy
6:52 PM 57.0 °F - 28.0 °F 33% 30.10 in 10.0 mi NW 15.0 mph 18.4 mph N/A   Partly Cloudy
7:52 PM 53.1 °F - 30.0 °F 41% 30.12 in 10.0 mi NW 8.1 mph - N/A   Clear
8:52 PM 52.0 °F - 30.0 °F 43% 30.12 in 10.0 mi Calm Calm - N/A   Clear
9:52 PM 45.0 °F - 36.0 °F 71% 30.14 in 10.0 mi Calm Calm - N/A   Clear
10:52 PM 43.0 °F - 35.1 °F 74% 30.14 in 10.0 mi Calm Calm - N/A   Clear
11:52 PM 41.0 °F 39.0 °F 35.1 °F 79% 30.13 in 10.0 mi South 3.5 mph - N/A   Clear